Date String (YYYY-MM-DD hh:mm:ss) UTC,Instrument flags,absolute air pressure of the measurement (hPa),sample flow rate (lpm),inlet stack bypass flow (lpm),air temperature of the measurement (°C),ambient temperature measured by the external sensor (°C),aerosol sample conditioner tube jacket temperature (°C),OPC LED temperature (°C),internal box temperature (°C),relative humidity of the measurement (%),span deviation,mass concentration of particles derived from Lorenz-Mie calculation of OPC scattering (μg/m³),mass concentration of particles derived from Lorenz-Mie calculation of OPC scattering (μg/m³),mass concentration of particles derived from Lorenz-Mie calculation of OPC scattering (μg/m³)
DateTimeUTC,F1_M11,P_M11,Q1_M11,Q2_M11,T1_M11,T2_M11,T3_M11,T4_M11,T5_M11,U1_M11,ZSPAN_M11,X2_M11,X0_M11,X1_M11
2023-10-27 14:00:00,SystemResetWarning,0834.1,5.00,000.00,022.8,021.3,000.0,031.3,024.5,15.0,-001.0,0007.44,0012.83,0007.01
2023-10-27 14:01:00,SystemResetWarning,0834.1,4.99,000.00,022.8,021.3,000.0,031.3,024.5,15.0,-000.4,0007.43,0013.15,0007.01
2023-10-27 14:02:00,SystemResetWarning,0834.1,5.00,000.00,022.8,021.3,000.0,031.3,024.5,14.9,0000.0,0007.44,0013.20,0007.02
2023-10-27 14:03:00,SystemResetWarning,0834.2,5.00,000.00,022.8,021.3,000.0,031.3,024.5,14.9,0000.0,0007.45,0013.23,0007.02
2023-10-27 14:04:00,SystemResetWarning,0834.2,5.00,000.00,022.8,021.3,000.0,031.3,024.5,14.9,0000.0,0007.45,0012.80,0007.02
2023-10-27 14:05:00,SystemResetWarning,0834.2,5.00,000.00,022.8,021.3,000.0,031.3,024.5,14.9,0000.0,0007.44,0012.51,0007.01
2023-10-27 14:06:00,SystemResetWarning,0834.2,5.00,000.00,022.8,021.3,000.0,031.3,024.5,14.9,0000.0,0007.46,0012.46,0007.01
2023-10-27 14:07:00,SystemResetWarning,0834.2,5.00,000.00,022.8,021.3,000.0,031.3,024.5,14.8,0000.1,0007.49,0012.56,0007.02
2023-10-27 14:08:00,SystemResetWarning,0834.2,5.00,000.00,022.8,021.3,000.0,031.3,024.5,14.8,0001.5,0007.48,0011.69,0007.01
2023-10-27 14:09:00,SystemResetWarning,0834.2,5.00,000.00,022.8,021.3,000.0,031.3,024.4,14.7,0000.0,0007.44,0010.77,0006.99
2023-10-27 14:10:00,SystemResetWarning,0834.2,5.00,000.00,022.8,021.3,000.0,031.3,024.4,14.7,0000.3,0007.39,0010.76,0006.96
2023-10-27 14:11:00,SystemResetWarning,0834.3,5.01,000.00,022.8,021.3,000.0,031.3,024.4,14.7,0000.0,0007.35,0010.37,0006.94
2023-10-27 14:12:00,SystemResetWarning,0834.4,5.00,000.00,022.7,021.2,000.0,031.2,024.4,14.7,0000.3,0007.31,0010.42,0006.92
2023-10-27 14:13:00,SystemResetWarning,0834.5,5.00,000.00,022.7,021.2,000.0,031.2,024.4,14.7,0000.5,0007.29,0010.39,0006.91
2023-10-27 14:14:00,SystemResetWarning,0834.7,5.00,000.00,022.7,021.2,000.0,031.2,024.4,14.7,0001.1,0007.25,0010.33,0006.89
2023-10-27 14:15:00,SystemResetWarning,0834.6,5.00,000.00,022.7,021.2,000.0,031.2,024.4,14.7,0001.0,0007.24,0010.40,0006.88
2023-10-27 14:16:00,SystemResetWarning,0834.3,4.99,000.00,022.7,021.2,000.0,031.2,024.4,14.6,0000.2,0007.24,0010.73,0006.86
2023-10-27 14:17:00,SystemResetWarning,0834.3,4.99,000.00,022.7,021.2,000.0,031.2,024.4,14.6,0000.3,0007.22,0010.74,0006.84
2023-10-27 14:18:00,SystemResetWarning,0834.4,5.00,000.00,022.7,021.2,000.0,031.2,024.4,14.6,0000.7,0007.21,0010.77,0006.82
2023-10-27 14:19:00,SystemResetWarning,0834.3,5.00,000.00,022.7,021.2,000.0,031.2,024.4,14.6,0001.3,0007.22,0010.77,0006.82
2023-10-27 14:20:00,SystemResetWarning,0834.3,5.00,000.00,022.7,021.2,000.0,031.2,024.3,14.5,0000.8,0007.22,0010.80,0006.82
2023-10-27 14:21:00,SystemResetWarning,0834.3,5.00,000.00,022.7,021.2,000.0,031.2,024.3,14.5,0000.1,0007.24,0010.76,0006.84
2023-10-27 14:22:00,SystemResetWarning,0834.3,5.00,000.00,022.7,021.2,000.0,031.2,024.3,14.5,0000.5,0007.27,0010.84,0006.84
2023-10-27 14:23:00,SystemResetWarning,0834.3,5.00,000.00,022.7,021.1,000.0,031.2,024.3,14.5,0000.7,0007.29,0010.37,0006.84
2023-10-27 14:24:00,SystemResetWarning,0834.4,5.00,000.00,022.6,021.1,000.0,031.2,024.3,14.4,0000.9,0007.28,0010.21,0006.83
2023-10-27 14:25:00,SystemResetWarning,0834.4,5.00,000.00,022.6,021.1,000.0,031.1,024.3,14.4,0000.1,0007.29,0010.29,0006.84
2023-10-27 14:26:00,SystemResetWarning,0834.3,4.99,000.00,022.6,021.1,000.0,031.1,024.3,14.5,-000.5,0007.29,0010.29,0006.84
2023-10-27 14:27:00,SystemResetWarning,0834.4,4.99,000.00,022.6,021.1,000.0,031.1,024.3,14.5,-000.0,0007.33,0010.02,0006.85
2023-10-27 14:28:00,SystemResetWarning,0834.4,4.99,000.00,022.6,021.1,000.0,031.1,024.2,14.5,-000.1,0007.33,0010.05,0006.86
2023-10-27 14:29:00,SystemResetWarning,0834.4,5.00,000.00,022.6,021.1,000.0,031.1,024.2,14.5,-000.3,0007.35,0010.13,0006.89
2023-10-27 14:30:00,SystemResetWarning,0834.4,5.00,000.00,022.6,021.1,000.0,031.1,024.2,14.6,-000.6,0007.35,0010.30,0006.90
2023-10-27 14:31:00,SystemResetWarning,0834.4,5.00,000.00,022.5,021.0,000.0,031.1,024.1,14.5,-000.1,0007.38,0010.29,0006.93
2023-10-27 14:32:00,SystemResetWarning,0834.3,5.00,000.00,022.5,021.0,000.0,031.1,024.1,14.5,0000.1,0007.40,0010.29,0006.96
2023-10-27 14:33:00,SystemResetWarning,0834.4,5.00,000.00,022.5,020.9,000.0,031.1,024.1,14.5,0000.3,0007.40,0010.34,0006.98
2023-10-27 14:34:00,SystemResetWarning,0834.4,5.00,000.00,022.5,020.9,000.0,031.1,024.1,14.5,-000.0,0007.39,0010.85,0007.00
2023-10-27 14:35:00,SystemResetWarning,0834.4,5.00,000.00,022.5,020.9,000.0,031.0,024.1,14.6,-000.1,0007.42,0010.98,0007.03
2023-10-27 14:36:00,SystemResetWarning,0834.4,5.00,000.00,022.5,020.9,000.0,031.0,024.1,14.7,0000.0,0007.45,0010.98,0007.05
2023-10-27 14:37:00,SystemResetWarning,0834.3,5.00,000.00,022.4,020.8,000.0,031.0,024.0,14.6,0000.4,0007.49,0011.06,0007.07
2023-10-27 14:38:00,SystemResetWarning,0834.6,4.99,000.00,022.4,020.7,000.0,031.0,024.0,14.6,0000.1,0007.48,0010.96,0007.10
2023-10-27 14:39:00,SystemResetWarning,0834.2,5.00,000.00,022.4,020.7,000.0,031.0,023.9,14.6,0000.4,0007.47,0010.81,0007.12
2023-10-27 14:40:00,SystemResetWarning,0834.4,5.00,000.00,022.4,020.7,000.0,031.0,023.9,14.6,0000.5,0007.46,0010.67,0007.13
2023-10-27 14:41:00,SystemResetWarning,0834.2,5.00,000.00,022.3,020.7,000.0,030.9,023.9,14.5,0000.4,0007.47,0010.42,0007.13
2023-10-27 14:42:00,SystemResetWarning,0834.3,5.00,000.00,022.3,020.7,000.0,030.9,023.9,14.6,0000.0,0007.45,0010.35,0007.12
2023-10-27 14:43:00,SystemResetWarning,0834.7,4.99,000.00,022.3,020.7,000.0,030.9,023.9,14.6,0000.1,0007.45,0010.38,0007.11
2023-10-27 14:44:00,SystemResetWarning,0834.3,5.01,000.00,022.3,020.6,000.0,030.9,023.9,14.5,0000.1,0007.44,0010.31,0007.09
2023-10-27 14:45:00,SystemResetWarning,0834.3,5.01,000.00,022.3,020.7,000.0,030.9,023.9,14.4,-000.2,0007.45,0009.88,0007.08
2023-10-27 14:46:00,SystemResetWarning,0834.3,4.99,000.00,022.3,020.7,000.0,030.9,023.9,14.5,-000.1,0007.46,0009.54,0007.09
2023-10-27 14:47:00,SystemResetWarning,0834.3,5.00,000.00,022.3,020.8,000.0,030.8,024.0,14.6,-000.3,0007.43,0009.46,0007.08
2023-10-27 14:48:00,SystemResetWarning,0834.3,5.00,000.00,022.3,020.8,000.0,030.8,024.0,14.6,0000.2,0007.46,0009.49,0007.08
2023-10-27 14:49:00,SystemResetWarning,0834.6,4.99,000.00,022.3,020.8,000.0,030.8,023.9,14.6,0000.1,0007.46,0009.66,0007.06
2023-10-27 14:50:00,SystemResetWarning,0834.3,4.99,000.00,022.3,020.8,000.0,030.8,023.9,14.7,0000.3,0007.44,0009.75,0007.04
2023-10-27 14:51:00,SystemResetWarning,0834.3,5.00,000.00,022.3,020.8,000.0,030.8,023.9,14.7,0000.5,0007.44,0009.77,0007.02
2023-10-27 14:52:00,SystemResetWarning,0834.6,5.01,000.00,022.3,020.8,000.0,030.8,023.9,14.6,0000.7,0007.41,0009.78,0007.01
2023-10-27 14:53:00,SystemResetWarning,0834.4,5.01,000.00,022.3,020.8,000.0,030.8,023.9,14.5,0000.6,0007.43,0009.87,0007.02
2023-10-27 14:54:00,SystemResetWarning,0834.4,5.01,000.00,022.3,020.8,000.0,030.8,023.9,14.5,0000.1,0007.42,0009.91,0007.02
2023-10-27 14:55:00,SystemResetWarning,0834.3,5.00,000.00,022.2,020.8,000.0,030.8,023.9,14.5,-000.7,0007.40,0010.21,0007.02
2023-10-27 14:56:00,SystemResetWarning,0834.5,5.00,000.00,022.2,020.8,000.0,030.8,023.9,14.5,-001.4,0007.41,0010.58,0007.01
2023-10-27 14:57:00,SystemResetWarning,0834.5,4.99,000.00,022.2,020.8,000.0,030.8,023.9,14.5,-002.0,0007.40,0010.66,0006.99
2023-10-27 14:58:00,SystemResetWarning,0834.4,4.99,000.00,022.2,020.7,000.0,030.8,023.8,14.5,-002.2,0007.40,0010.71,0006.98
2023-10-27 14:59:00,SystemResetWarning,0834.4,5.00,000.00,022.2,020.7,000.0,030.8,023.8,14.6,-002.1,0007.37,0010.73,0006.97
